Weather History for Athens Eleftherios, Greece

Change the Weather History Date:

Sunday, September 22, 2013

  Actual Average (LGEL) Record (LGEL)
Temperature  
Mean Temperature 68 °F -  
Max Temperature 75 °F 80 °F 92 °F (2014)
Min Temperature 60 °F 63 °F 59 °F (2008)
Cooling Degree Days 2    
Growing Degree Days 18 (Base 50)    
Moisture  
Dew Point 52 °F    
Average Humidity 57    
Maximum Humidity 77    
Minimum Humidity 41    
Precipitation  
Precipitation 0.00 in - - ()
Sea Level Pressure  
Sea Level Pressure 30.06 in    
Wind  
Wind Speed 8 mph ()    
Max Wind Speed 24 mph    
Max Gust Speed -    
Visibility 6.2 miles    
Events      
Averages and records for this station are not official NWS values.
T = Trace of Precipitation, MM = Missing Value Source: Averaged Metar Reports

Daily Weather History Graph

Daily Weather History Graph

Search for Another Location

Airport:

Trip Planner

Search our weather history database for the weather conditions in past years. The results will help you decide how hot, cold, wet, or windy it might be!

Date:

Astronomy

Sep. 22, 2013 Rise Set
Actual Time 7:11 AM EEST 7:21 PM EEST
Civil Twilight 6:45 AM EEST 7:47 PM EEST
Nautical Twilight 6:14 AM EEST 8:18 PM EEST
Astronomical Twilight 5:43 AM EEST 8:49 PM EEST
Moon 9:02 PM EEST (9/22) 10:09 AM EEST (9/22)
Length of Visible Light 13h 01m
Length of Day
12h 09m
Waning Gibbous, 90% of the Moon is Illuminated
Sep 22
Waning Gibbous
Sep 27
Last Quarter
Oct 5
New
Oct 12
First Quarter
Oct 19
Full

Hourly Weather History & Observations

Time (EEST) Temp. Dew Point Humidity Pressure Visibility Wind Dir Wind Speed Gust Speed Precip Events Conditions
12:20 AM 69.8 °F 55.4 °F 60% 30.06 in 6.2 mi NNE 5.8 mph - N/A   Mostly Cloudy
12:50 AM 68.0 °F 57.2 °F 68% 30.06 in 6.2 mi NNE 4.6 mph - N/A   Mostly Cloudy
1:20 AM 66.2 °F 55.4 °F 68% 30.06 in 6.2 mi NNE 6.9 mph - N/A   Mostly Cloudy
1:50 AM 64.4 °F 55.4 °F 73% 30.06 in 6.2 mi North 4.6 mph - N/A   Mostly Cloudy
2:20 AM 64.4 °F 55.4 °F 73% 30.06 in 6.2 mi North 5.8 mph - N/A   Scattered Clouds
2:50 AM 62.6 °F 53.6 °F 72% 30.06 in 6.2 mi NNE 4.6 mph - N/A   Scattered Clouds
3:20 AM 60.8 °F 53.6 °F 77% 30.06 in 6.2 mi NNE 4.6 mph - N/A   Scattered Clouds
3:50 AM 62.6 °F 55.4 °F 77% 30.06 in 6.2 mi NNE 3.5 mph - N/A   Scattered Clouds
4:20 AM 60.8 °F 51.8 °F 72% 30.06 in 6.2 mi NNE 4.6 mph - N/A   Scattered Clouds
4:50 AM 64.4 °F 53.6 °F 68% 30.06 in 6.2 mi North 6.9 mph - N/A   Scattered Clouds
5:20 AM 60.8 °F 51.8 °F 72% 30.06 in 6.2 mi NNE 8.1 mph - N/A   Mostly Cloudy
6:20 AM 62.6 °F 53.6 °F 72% 30.06 in 6.2 mi North 5.8 mph - N/A   Mostly Cloudy
6:50 AM 64.4 °F 51.8 °F 64% 30.06 in 6.2 mi Variable 1.2 mph - N/A   Scattered Clouds
7:20 AM 66.2 °F 53.6 °F 64% 30.06 in 6.2 mi NNW 3.5 mph - N/A   Scattered Clouds
7:50 AM 66.2 °F 53.6 °F 64% 30.06 in 6.2 mi North 4.6 mph - N/A   Scattered Clouds
8:20 AM 68.0 °F 53.6 °F 60% 30.06 in 6.2 mi NNW 4.6 mph - N/A   Scattered Clouds
8:50 AM 69.8 °F 53.6 °F 56% 30.06 in 6.2 mi North 8.1 mph - N/A   Scattered Clouds
9:20 AM 71.6 °F 53.6 °F 53% 30.06 in 6.2 mi NNE 12.7 mph - N/A   Scattered Clouds
9:50 AM 73.4 °F 55.4 °F 53% 30.06 in 6.2 mi NNE 13.8 mph - N/A   Scattered Clouds
10:50 AM 71.6 °F 50.0 °F 46% 30.06 in 6.2 mi North 9.2 mph - N/A   Scattered Clouds
11:20 AM 68.0 °F 55.4 °F 64% 30.09 in 6.2 mi NNE 24.2 mph - N/A   Mostly Cloudy
11:50 AM 69.8 °F 51.8 °F 53% 30.09 in 6.2 mi North 16.1 mph - N/A   Mostly Cloudy
12:20 PM 71.6 °F 51.8 °F 50% 30.09 in 6.2 mi NNE 13.8 mph - N/A   Mostly Cloudy
12:50 PM 71.6 °F 51.8 °F 50% 30.09 in 6.2 mi NNE 13.8 mph - N/A   Mostly Cloudy
1:20 PM 73.4 °F 48.2 °F 41% 30.09 in 6.2 mi North 12.7 mph - N/A   Mostly Cloudy
1:50 PM 73.4 °F 48.2 °F 41% 30.09 in 6.2 mi NNE 15.0 mph - N/A   Mostly Cloudy
2:20 PM 73.4 °F 50.0 °F 44% 30.06 in 6.2 mi NE 15.0 mph - N/A   Mostly Cloudy
2:50 PM 73.4 °F 50.0 °F 44% 30.06 in 6.2 mi NNE 17.3 mph - N/A   Mostly Cloudy
3:20 PM 75.2 °F 50.0 °F 41% 30.06 in 6.2 mi NE 19.6 mph - N/A   Mostly Cloudy
3:50 PM 71.6 °F 48.2 °F 43% 30.06 in 6.2 mi NNE 20.7 mph - N/A   Mostly Cloudy
4:20 PM 71.6 °F 50.0 °F 46% 30.06 in 6.2 mi NNE 17.3 mph - N/A   Mostly Cloudy
4:50 PM 71.6 °F 50.0 °F 46% 30.06 in 6.2 mi NNE 18.4 mph - N/A   Mostly Cloudy
5:20 PM 71.6 °F 50.0 °F 46% 30.06 in 6.2 mi NNE 16.1 mph - N/A   Mostly Cloudy
5:50 PM 69.8 °F 50.0 °F 49% 30.06 in 6.2 mi NNE 13.8 mph - N/A   Mostly Cloudy
6:20 PM 69.8 °F 50.0 °F 49% 30.06 in 6.2 mi NNE 13.8 mph - N/A   Mostly Cloudy
6:50 PM 69.8 °F 50.0 °F 49% 30.06 in 6.2 mi NNE 17.3 mph - N/A   Mostly Cloudy
7:20 PM 69.8 °F 50.0 °F 49% 30.06 in 6.2 mi NNE 12.7 mph - N/A   Mostly Cloudy
7:50 PM 68.0 °F 48.2 °F 49% 30.04 in 6.2 mi NNE 6.9 mph - N/A   Mostly Cloudy
8:20 PM 68.0 °F 50.0 °F 52% 30.06 in 6.2 mi North 8.1 mph - N/A   Mostly Cloudy
8:50 PM 68.0 °F 48.2 °F 49% 30.06 in 6.2 mi North 8.1 mph - N/A   Scattered Clouds
9:20 PM 68.0 °F 50.0 °F 52% 30.06 in 6.2 mi North 9.2 mph - N/A   Scattered Clouds
9:50 PM 68.0 °F 50.0 °F 52% 30.06 in 6.2 mi NNW 4.6 mph - N/A   Scattered Clouds
10:20 PM 66.2 °F 50.0 °F 56% 30.06 in 6.2 mi North 6.9 mph - N/A   Scattered Clouds
10:50 PM 66.2 °F 51.8 °F 60% 30.06 in 6.2 mi NNE 13.8 mph - N/A   Scattered Clouds
11:20 PM 66.2 °F 51.8 °F 60% 30.04 in 6.2 mi NNE 13.8 mph - N/A   Scattered Clouds
11:50 PM 66.2 °F 50.0 °F 56% 30.06 in 6.2 mi North 11.5 mph - N/A   Scattered Clouds